Location: Zagreb
(45.8000°N, 16.0000°E)
Time: 13:13:34
(UTC+02:00)

ISS - Visible Passes

Search period start: 26 May 2017 00:00
Search period end: 05 June 2017 00:00
Orbit: 402 x 408 km, 51.6° (Epoch: 26 May)

Date Brightness Start Highest point End Pass type
(mag) Time Alt. Az. Time Alt. Az. Time Alt. Az.
26 May -1.7 00:15:15 10° WNW 00:18:11 29° N 00:21:07 10° ENE visible
26 May -2.4 01:52:06 10° NW 01:55:13 39° NNE 01:58:20 10° E visible
26 May -3.7 03:28:36 10° WNW 03:31:48 49° SW 03:34:58 10° SE visible
26 May -3.9 21:45:54 10° WSW 21:49:13 85° SSE 21:52:31 10° ENE visible
26 May -1.9 23:22:57 10° WNW 23:25:58 32° N 23:28:59 10° NE visible
27 May -1.9 01:00:01 10° NW 01:03:02 32° N 01:06:02 10° ENE visible
27 May -4.0 02:36:29 10° WNW 02:39:47 85° SSW 02:43:04 10° ESE visible
27 May -2.0 04:14:07 10° WSW 04:15:50 14° SW 04:17:32 10° SSW visible
27 May -2.3 22:30:38 10° W 22:33:46 39° NNW 22:36:54 10° NE visible
28 May -1.7 00:07:52 10° WNW 00:10:48 28° N 00:13:43 10° ENE visible
28 May -3.3 01:44:26 10° WNW 01:47:24 57° N 01:47:24 57° N visible
28 May -2.9 21:38:21 10° W 21:41:35 53° NNW 21:44:50 10° ENE visible
28 May -1.7 23:15:37 10° WNW 23:18:32 28° N 23:21:27 10° ENE visible
29 May -2.7 00:52:23 10° NW 00:55:33 43° NNE 00:55:58 40° NE visible
29 May -1.8 22:23:18 10° WNW 22:26:17 30° N 22:29:15 10° ENE visible
30 May -2.1 00:00:17 10° NW 00:03:20 34° NNE 00:05:03 20° ENE visible
30 May -1.5 01:36:45 10° WNW 01:37:40 17° WNW 01:37:40 17° WNW visible
30 May -2.1 21:30:56 10° W 21:34:01 36° NNW 21:37:07 10° NE visible
30 May -1.9 23:08:07 10° WNW 23:11:04 29° N 23:14:01 10° ENE visible
31 May -2.7 00:44:38 10° WNW 00:46:56 41° NW 00:46:56 41° NW visible
31 May -1.7 22:15:52 10° WNW 22:18:46 28° N 22:21:41 10° ENE visible
31 May -3.0 23:52:32 10° WNW 23:55:45 48° NNE 23:56:19 42° NE visible
01 Jun -1.8 21:23:31 10° WNW 21:26:28 29° N 21:29:26 10° ENE visible
01 Jun -2.4 23:00:25 10° NW 23:03:31 36° NNE 23:05:45 16° ENE visible
02 Jun -2.0 00:36:54 10° WNW 00:38:22 24° WNW 00:38:22 24° WNW visible
02 Jun -2.0 22:08:14 10° NW 22:11:13 31° N 22:14:12 10° ENE visible
02 Jun -3.8 23:44:42 10° WNW 23:47:51 78° NW 23:47:51 78° NW visible
03 Jun -1.9 21:15:59 10° WNW 21:18:54 28° N 21:21:49 10° ENE visible
03 Jun -3.3 22:52:35 10° WNW 22:55:50 55° NNE 22:57:21 27° E visible
04 Jun -1.3 00:29:20 10° W 00:30:00 14° W 00:30:00 14° W visible
04 Jun -2.6 22:00:26 10° NW 22:03:34 40° NNE 22:06:43 10° E visible
04 Jun -3.0 23:36:57 10° WNW 23:39:31 40° WSW 23:39:31 40° WSW visible
